Погода в Виноградовке

Россия / Амурская область     49°39′50″N   129°24′36″E
темп.,
°C
ветер,
м/с
пор.,
м/с
влажн.,
%
обл.,
%
осадки,
мм/ч
давл.,
гПа
погр.,
м
14 апреля, ср
ср1400:00−4зсз594910 0.0 1006949
03:00−5зсз6104785 0.0 10051133
06:00−5зсз5104975 0.0 1006749
09:00−3сз71044100 0.0 10061656
12:00−1сз7936100 0.1 10062427
15:00+1сз71031100 0.1 10062716
18:000ссз583368 0.0 10061588
21:00−3с22414 0.0 100813
15 апреля, чт
чт1500:00−3зюз114098 0.0 100910
03:00−3зюз234397 0.0 101059
06:00−3зюз11405 0.0 101010
09:00+2юв212933 0.0 1010563
12:00+5ююв232846 0.0 10101574
15:00+6вюв2229100 0.0 10091666
18:00+6всв4539100 0.0 1009294
21:00+3всв5949100 0.0 1010224
16 апреля, пт
пт1600:00+2вюв4958100 0.3 1010435
03:000всв61298100 3.9 1007363
06:00+2в71477100 0.4 1005632
09:00+4вюв71365100 0.4 1004672
12:00+10юв684999 0.0 10041164
15:00+13в684696 0.0 10021819
18:00+10вюв41064100 0.4 1003421
21:00+6в61183100 0.9 1005375
17 апреля, сб
сб1700:00+6всв4784100 0.1 1006444
03:00+4св4783100 0.5 1006195
06:00+3ссв4788100 0.0 1007212
09:00+6ссв4469100 0.0 1009548
12:00+10ссв445872 0.0 10091295
15:00+10ссв4456100 0.1 10091454
18:00+9ссз45665 0.0 1010501
21:00+5ссз36841 0.0 1012122
18 апреля, вс
вс1800:00+3сз33880 0.0 101252
03:00+2сз34844 0.0 101266
06:00+1сз33750 0.0 101254
09:00+7зсз23500 0.0 1012421
12:00+11зсз23290 0.0 10101288
15:00+13зсз33235 0.0 10081497
18:00+13сз343145 0.0 1007315
21:00+8сз34485 0.0 100845